MEASAT-3B

Last updated on Thu Jul 03 2025 00:02:46 GMT+0000 (Coordinated Universal Time)

1 40147U 14054B 25183.62597499 -.00000234 00000+0 00000+0 0 9998 2 40147 0.0249 2.0226 0002521 96.6722 139.0516 1.00271770 39403
UTC large
Height (km)
Speed (km/s)
/
Latitude / Longitude
Inclination (degrees)
Orbital Period (minutes)
Azimuth
Elevation
Range (km)
Doppler Factor

Next 0 passes for location: London (51.5072 / 0.1276)

Sorry there are no passes over London.